Miscellaneous Local Product
Issued by NWS North Platte, NE

Home | Current Version | Previous Version | Graphics & Text | Print | Product List | Glossary On
Versions: 1 2 3 4 5 6 7 8 9 10 11 12 13 14 15 16 17 18 19 20 21 22 23 24 25 26 27 28 29 30 31 32 33 34 35 36 37 38 39 40 41 42 43 44 45 46 47 48 49 50
000
AXUS43 KLBF 282310
MISLBF


WESTERN AND NORTH CENTRAL NEBRASKA HOURLY WEATHER ROUNDUP
NATIONAL WEATHER SERVICE NORTH PLATTE NE
600 PM CDT TUE JUL 28 2015

***STATIONS NOT REPORTING VARIABLES SUCH AS SKY/WEATHER OR
PRESSURE ARE PROVIDED BY THE NEBRASKA DEPARTMENT OF
ROADS...RAWS...AND APRS NETWORKS...AND ARE NOT UNDER
NATIONAL WEATHER SERVICE QUALITY CONTROL***

...OBSERVATIONS IN AND NEAR THE EASTERN PANHANDLE OF NEBRASKA...

CITY           SKY/WX    TMP DP  RH WIND       PRES   REMARKS
PINE RIDGE     SUNNY     80  33  18 NW15G25   30.07R
CHADRON        SUNNY     81  30  15 NW14G23   30.07S
ALLIANCE       SUNNY     81  30  15 NW15G25   30.09S
SIDNEY         SUNNY     82  31  15 NE8       30.14S
BIG SPRINGS      N/A     84  41  22 N5          N/A
$$

...OBSERVATIONS IN NORTH CENTRAL NEBRASKA...

CITY           SKY/WX    TMP DP  RH WIND       PRES   REMARKS
VALENTINE      SUNNY     83  37  19 W16G23    30.03R
THEDFORD       SUNNY     82  45  26 NW12G17   30.07S
AINSWORTH      SUNNY     83  42  24 W13       30.03S
O`NEILL        MOSUNNY   80  54  40 NW9G16    30.01S
ORD            MOSUNNY   83  52  34 N9        29.99S
BROKEN BOW     SUNNY     85  52  32 N6        30.02S
SPRINGVIEW       N/A     83  50  31 NW6G13      N/A
CHAMBERS         N/A     84  53  33 NW6         N/A
EWING            N/A     80  58  47 NW3         N/A
$$

...OBSERVATIONS IN SOUTHWEST NEBRASKA AND FAR NORTHEAST COLORADO...

CITY           SKY/WX    TMP DP  RH WIND       PRES   REMARKS
WRAY           FAIR      85  40  19 NE12      30.10R
HOLYOKE        FAIR      88  32  13 N13       30.10S
IMPERIAL       SUNNY     84  41  21 N13       30.08R
OGALLALA       SUNNY     83  41  22 N7        30.08S
NORTH PLATTE   SUNNY     83  45  26 N12       30.05R
MCCOOK         SUNNY     87  48  25 NE13      30.03R
LEXINGTON      SUNNY     84  52  33 N8        30.03R
PAXTON           N/A     83  46  26 N5          N/A
BRADY            N/A     83  46  26 CALM        N/A
CALLAWAY         N/A     82  55  39 NW9         N/A
$$

...NORTH PLATTE AREA...

CITY           SKY/WX    TMP DP  RH WIND       PRES   REMARKS
AIRPORT        SUNNY     83  45  26 N12       30.05R
DOWNTOWN         N/A     84  43  23 N5          N/A
SANDRIDGE        N/A     84  42  22 N6          N/A
HILLCREST        N/A     83  40  21 N12G18      N/A
$$

...SOME WEATHER OBSERVATIONS FROM AROUND THE REGION...

CITY           SKY/WX    TMP DP  RH WIND       PRES   REMARKS
DENVER         MOSUNNY   85  39  19 SE22G31   30.13S
LARAMIE        SUNNY     75  24  15 W18G30    30.27R
CHEYENNE       PTSUNNY   80  37  21 E9        30.20R
SCOTTSBLUFF    SUNNY     83  27  13 CALM      30.10S
RAPID CITY     MOSUNNY   77  41  27 W20G29    30.06R
PIERRE         MOSUNNY   82  43  25 W24G35    29.94R
WINNER         FAIR      83  46  27 W16G23    29.99S
SIOUX FALLS    MOSUNNY   79  57  46 W14G20    29.93R
OMAHA          PTSUNNY   80  73  79 N18       29.89R
GRAND ISLAND   MOSUNNY   82  55  39 N13       29.99R
KANSAS CITY    MOSUNNY   92  74  55 S15       29.87S HX 101
WICHITA        SUNNY     98  70  40 S22G29    29.85S HX 105
HAYS           SUNNY     88  63  42 N21       29.94S
LIBERAL        MOSUNNY   88  64  45 N16       29.97R
GOODLAND       SUNNY     84  42  22 NE13G21   30.08S
$$



USA.gov is the U.S. government's official web portal to all federal, state and local government web resources and services.